Wind_Speed
45 46 47 47 48 49 49 50 50 50 49 48 49 49 50 50 50 49 50 51 51 50 50 50 49 49 50 49 48 48 48 46 46 45 45 45 44 44
46 46 46 47 48 48 49 50 51 52 52 50 50 49 50 50 50 50 50 51 52 51 52 51 51 50 50 50 50 50 49 49 49 48 48 47 46 45
45 45 45 46 47 47 48 49 50 51 51 50 50 49 50 49 49 49 50 50 51 52 52 53 53 52 52 52 53 52 52 51 51 50 49 48 48 47
43 43 44 45 45 46 47 47 49 50 49 49 49 49 50 49 49 50 51 52 50 50 52 53 54 53 53 53 54 54 53 53 52 51 50 50 49 49
40 41 42 43 44 45 45 46 47 48 48 49 49 49 50 51 51 51 52 53 52 51 52 53 54 55 55 53 53 53 52 53 53 53 52 51 51 50
38 38 40 41 43 45 46 46 46 46 47 48 49 49 50 51 52 52 51 52 52 52 53 52 53 53 53 53 52 52 53 53 53 53 53 53 53 52
37 38 39 41 42 43 43 43 44 45 47 47 49 49 50 51 52 52 52 52 53 54 54 54 54 54 53 53 53 53 53 53 53 54 54 54 54 53
36 37 38 39 40 41 42 42 43 43 45 46 47 48 49 49 50 51 52 52 53 53 54 54 54 53 53 54 54 54 55 54 55 55 54 54 55 54
36 37 37 38 39 40 41 42 43 43 44 45 45 47 47 47 48 51 52 53 53 53 54 53 53 54 54 55 55 55 56 55 55 55 55 55 55 55
36 37 37 37 38 39 40 41 41 42 43 43 44 44 45 46 47 48 49 51 52 53 54 53 53 54 54 55 55 55 56 56 55 55 55 55 54 53
34 34 35 36 36 37 38 38 38 39 40 41 43 44 45 46 46 47 47 48 49 50 52 52 53 53 54 55 55 54 54 54 54 54 54 53 53 53
31 32 33 33 34 35 35 35 36 37 38 39 40 41 42 43 44 45 46 47 47 49 50 52 52 52 51 52 53 53 53 53 53 53 53 53 52 52
30 31 31 31 32 32 33 34 34 35 36 37 38 39 41 43 44 45 47 47 47 47 49 50 51 51 50 49 49 49 50 51 52 52 51 51 52 51
30 30 30 31 31 32 32 33 33 34 35 36 37 39 40 42 43 45 46 47 47 46 47 48 49 49 48 48 46 46 48 49 49 49 49 49 50 50
30 30 30 30 30 31 32 33 33 34 36 37 38 39 41 42 43 44 45 46 46 46 45 45 45 46 46 46 45 45 45 46 47 48 47 47 48 48
30 30 30 30 30 31 32 33 34 36 37 38 39 40 42 43 44 44 44 44 44 44 45 44 44 45 45 44 44 44 44 45 45 46 46 46 46 46
30 30 30 30 31 31 33 34 35 36 37 39 40 41 41 42 42 43 43 43 44 43 43 44 44 44 45 45 45 45 44 44 44 44 44 44 44 44
31 31 32 32 32 33 33 34 36 37 38 40 41 41 41 41 41 42 43 42 42 42 42 43 43 43 44 44 45 45 44 43 44 44 43 42 42 44
32 32 33 33 34 35 35 35 36 38 38 39 39 39 40 40 40 41 41 40 41 41 42 43 43 43 43 42 42 44 44 43 43 43 42 41 40 40
33 33 33 34 35 35 36 36 36 37 37 38 38 40 40 40 40 40 40 40 41 41 42 43 43 43 42 41 40 41 42 42 41 40 39 39 38 37
33 34 34 35 36 36 37 37 37 37 38 38 39 40 40 40 40 41 41 41 41 41 41 42 42 42 41 40 39 38 39 40 40 39 38 37 36 36
33 34 34 35 36 36 38 38 39 39 39 39 40 40 40 40 40 40 40 41 41 41 41 40 40 40 40 39 39 38 37 38 38 38 36 35 35 34
34 34 34 35 36 37 38 39 39 39 39 39 40 39 39 39 39 40 40 40 40 40 39 39 38 38 39 39 39 38 37 37 36 36 35 35 34 33
Wind_Direction
263 262 261 261 260 260 260 261 261 261 262 263 263 263 263 263 263 264 264 263 264 265 265 266 268 268 269 269 269 269 269 270 272 273 274 275 275 275
263 262 261 261 261 261 261 261 261 263 264 263 263 263 263 263 263 263 264 264 264 265 265 265 267 269 269 268 267 268 268 269 270 272 273 273 274 275
263 261 261 262 261 261 261 262 262 263 264 263 262 262 263 263 263 264 264 265 265 266 266 266 268 269 270 268 267 267 268 268 271 272 272 272 273 274
263 261 261 262 261 261 261 263 263 263 264 263 262 262 261 261 263 264 264 264 265 266 266 266 268 269 271 270 268 268 268 269 270 271 270 271 272 271
264 263 263 263 261 262 263 264 264 264 263 263 263 263 262 261 262 264 265 265 266 266 267 267 268 269 270 271 270 268 267 268 269 270 271 271 271 271
266 265 264 265 264 263 263 264 264 264 264 264 265 265 264 263 264 265 266 267 267 268 268 268 269 270 270 270 270 269 269 269 269 270 270 270 271 271
267 267 267 267 266 265 264 265 265 265 265 265 266 266 266 265 265 266 267 268 268 269 270 271 271 271 270 270 270 270 269 270 270 269 270 270 270 269
269 269 269 268 267 266 266 266 266 266 266 267 267 267 268 268 268 268 268 268 269 270 270 270 271 270 269 269 270 270 269 269 270 269 269 269 269 268
271 270 269 269 269 268 267 267 267 266 267 268 269 269 269 270 270 270 270 270 269 269 269 270 270 269 270 269 269 270 269 269 270 269 269 268 268 267
274 272 271 271 270 269 269 268 268 268 269 270 270 271 272 272 272 272 271 271 270 270 270 270 270 270 270 270 271 271 271 269 269 268 269 268 267 267
275 273 272 272 271 271 271 271 271 271 271 271 273 273 274 274 274 274 274 274 273 271 271 272 272 272 271 271 271 271 271 270 269 269 269 269 268 266
277 275 274 273 273 273 272 272 272 272 273 273 275 276 276 276 276 276 277 277 277 275 273 273 273 273 271 270 270 271 271 270 269 270 270 269 269 267
278 277 276 276 276 275 274 274 274 274 274 275 276 277 278 278 278 279 279 279 279 279 277 275 274 274 273 271 270 270 271 270 269 269 270 269 269 268
278 277 277 277 277 277 277 277 276 277 277 277 278 279 280 280 280 281 281 281 281 281 280 277 275 274 274 273 271 270 271 270 269 268 269 268 268 268
280 280 279 279 279 279 279 279 279 279 280 280 280 281 283 283 283 282 282 282 282 281 281 280 278 277 277 275 273 272 271 269 269 269 268 267 267 266
283 281 281 280 279 280 281 282 282 282 283 283 283 284 284 284 284 284 283 283 282 281 280 280 280 279 278 277 275 274 273 272 270 269 268 266 266 266
283 282 282 281 281 282 283 284 285 285 286 286 287 287 286 286 285 285 284 283 282 280 280 279 279 280 279 279 277 276 275 273 271 270 269 267 266 265
282 282 282 283 283 284 286 286 286 286 287 288 289 288 287 287 287 286 285 284 283 281 280 278 278 279 280 279 279 277 275 274 272 271 270 268 265 264
284 283 282 283 284 285 287 288 289 289 289 289 290 289 288 288 287 287 286 284 283 283 281 280 280 280 279 278 278 278 277 275 273 271 269 267 265 263
284 284 284 284 285 286 287 289 290 290 290 290 291 291 291 289 288 288 287 286 286 286 285 284 283 282 282 282 279 278 278 276 273 270 268 265 263 262
286 286 286 286 286 287 288 290 290 290 290 291 292 292 291 290 289 289 288 288 288 287 287 286 284 283 283 283 281 278 277 277 273 270 267 264 262 259
287 287 287 287 288 288 289 290 290 290 290 291 293 293 292 291 290 289 289 289 289 288 287 286 284 283 283 283 281 278 277 275 273 270 267 264 261 257
287 288 289 290 290 289 290 290 290 290 290 291 292 293 292 292 291 290 290 290 290 289 287 287 285 283 283 284 282 278 276 275 272 268 264 263 261 256
Height
5675 5677 5678 5680 5682 5684 5686 5687 5690 5692 5694 5696 5697 5698 5699 5700 5701 5702 5703 5705 5706 5707 5707 5708 5708 5709 5709 5709 5709 5710 5711 5711 5711 5711 5711 5711 5711 5711
5663 5665 5666 5668 5670 5671 5673 5674 5676 5678 5680 5683 5684 5685 5685 5687 5688 5689 5690 5691 5692 5692 5693 5694 5695 5695 5695 5695 5695 5696 5697 5698 5698 5699 5699 5699 5699 5699
5651 5652 5654 5656 5657 5659 5660 5661 5662 5664 5666 5669 5670 5671 5672 5673 5675 5676 5676 5677 5678 5678 5679 5680 5680 5681 5681 5681 5681 5682 5683 5684 5684 5685 5685 5685 5685 5686
5638 5640 5642 5643 5644 5646 5647 5648 5649 5650 5652 5655 5656 5657 5659 5660 5661 5661 5662 5663 5664 5664 5665 5665 5666 5666 5666 5666 5667 5668 5668 5669 5670 5670 5671 5671 5671 5671
5626 5628 5629 5630 5632 5633 5634 5634 5635 5637 5638 5640 5642 5643 5644 5645 5646 5647 5648 5648 5649 5650 5650 5650 5651 5651 5651 5651 5651 5652 5653 5654 5655 5655 5655 5655 5656 5656
5615 5616 5617 5618 5619 5620 5621 5622 5623 5623 5625 5626 5627 5629 5630 5631 5631 5633 5633 5633 5634 5634 5634 5635 5636 5636 5636 5635 5636 5636 5637 5637 5638 5638 5639 5639 5640 5640
5604 5605 5605 5606 5606 5607 5608 5609 5609 5610 5611 5612 5613 5614 5615 5616 5617 5618 5619 5619 5619 5619 5620 5620 5620 5620 5619 5619 5619 5619 5620 5620 5621 5621 5622 5622 5623 5624
5594 5594 5594 5594 5594 5594 5595 5596 5596 5597 5598 5598 5599 5600 5601 5601 5602 5602 5603 5604 5605 5606 5604 5605 5603 5603 5603 5603 5603 5603 5603 5604 5604 5604 5604 5605 5606 5606
5582 5582 5583 5582 5582 5582 5582 5583 5583 5583 5584 5585 5585 5585 5586 5586 5587 5587 5586 5586 5588 5588 5588 5589 5587 5587 5586 5586 5586 5586 5586 5586 5586 5586 5587 5587 5588 5588
5571 5571 5571 5571 5570 5570 5570 5570 5570 5570 5570 5571 5571 5571 5571 5571 5571 5570 5570 5570 5570 5570 5570 5571 5571 5570 5569 5568 5567 5567 5567 5567 5567 5568 5568 5569 5570 5570
5560 5559 5559 5559 5559 5558 5558 5558 5558 5557 5557 5557 5557 5557 5556 5556 5555 5555 5554 5554 5555 5554 5553 5553 5554 5554 5553 5552 5550 5549 5549 5549 5549 5550 5550 5550 5551 5552
5550 5549 5548 5548 5547 5547 5547 5547 5546 5546 5546 5545 5544 5544 5543 5542 5541 5540 5540 5539 5538 5539 5538 5537 5536 5536 5537 5537 5535 5533 5533 5532 5532 5532 5532 5532 5533 5534
5540 5539 5538 5537 5537 5536 5536 5536 5535 5535 5534 5534 5533 5532 5530 5529 5528 5527 5525 5524 5523 5523 5522 5521 5520 5519 5519 5521 5520 5517 5516 5516 5516 5515 5515 5515 5515 5516
5530 5529 5529 5528 5527 5526 5526 5525 5524 5523 5523 5522 5521 5520 5518 5516 5515 5513 5511 5510 5508 5507 5506 5504 5504 5503 5503 5503 5504 5503 5500 5499 5499 5498 5498 5498 5498 5498
5521 5520 5519 5518 5517 5517 5516 5515 5514 5513 5511 5510 5509 5508 5506 5504 5502 5500 5497 5496 5494 5492 5491 5489 5488 5488 5487 5487 5487 5486 5485 5484 5482 5482 5482 5482 5482 5482
5512 5511 5510 5509 5508 5507 5506 5505 5503 5502 5500 5499 5497 5495 5493 5490 5488 5486 5484 5482 5480 5478 5476 5475 5474 5473 5472 5471 5471 5470 5469 5468 5467 5466 5466 5466 5465 5465
5503 5502 5501 5499 5498 5497 5496 5494 5492 5491 5489 5487 5485 5482 5480 5477 5474 5472 5470 5468 5466 5465 5463 5461 5460 5458 5457 5456 5455 5454 5452 5451 5450 5450 5450 5450 5450 5449
5493 5492 5491 5489 5488 5487 5485 5483 5481 5479 5477 5475 5472 5469 5467 5464 5461 5459 5457 5454 5453 5451 5449 5448 5446 5445 5443 5442 5440 5438 5437 5435 5434 5433 5433 5434 5435 5435
5483 5482 5481 5479 5478 5476 5475 5473 5471 5468 5465 5463 5460 5457 5454 5451 5448 5446 5443 5441 5439 5438 5435 5433 5432 5430 5430 5429 5427 5422 5421 5420 5419 5418 5418 5418 5420 5420
5473 5472 5470 5469 5467 5465 5464 5461 5459 5456 5453 5451 5448 5444 5441 5438 5436 5433 5431 5428 5426 5424 5421 5419 5417 5415 5414 5413 5412 5410 5406 5404 5404 5403 5403 5404 5405 5406
5463 5461 5459 5458 5456 5454 5452 5450 5447 5445 5442 5439 5436 5432 5429 5426 5423 5420 5418 5416 5413 5411 5408 5406 5403 5401 5399 5398 5397 5396 5393 5390 5389 5389 5389 5390 5392 5393
5452 5450 5448 5446 5444 5442 5440 5438 5435 5433 5430 5427 5423 5420 5417 5413 5411 5408 5406 5403 5400 5397 5395 5392 5390 5387 5385 5383 5382 5382 5380 5378 5376 5375 5376 5377 5378 5381
5442 5440 5438 5435 5433 5431 5428 5426 5423 5420 5417 5415 5411 5408 5405 5401 5398 5396 5393 5390 5387 5384 5382 5379 5377 5374 5372 5370 5369 5368 5367 5366 5365 5365 5366 5366 5367 5369